SCP
0 0 0 0 0 0 0 0 0 0 0 0 0 0 0 0 0 0 0 0 0 1 1 1 1 1 1 1 1 1 1 1 1 1 0 0 0 0 0 0 0 0 0 0
0 0 0 0 0 0 0 0 0 0 0 0 0 0 0 0 0 0 0 0 0 1 1 1 1 1 1 1 1 1 1 1 1 1 0 0 0 0 0 0 0 0 0 0
0 0 0 0 0 0 0 0 0 0 0 0 0 0 0 0 0 0 0 0 1 1 1 1 1 1 1 1 1 1 1 1 1 0 0 0 0 0 0 0 0 0 0 0
0 0 0 0 0 0 0 0 0 0 0 0 0 0 0 0 1 1 1 1 1 1 1 1 1 1 1 1 1 1 1 1 1 0 0 0 0 0 0 0 0 0 0 0
0 0 0 0 0 0 0 0 0 0 0 0 0 0 1 1 1 1 1 1 1 1 1 1 1 1 1 1 1 1 1 1 1 0 0 0 0 1 1 1 0 0 0 0
0 0 0 0 0 0 0 0 0 0 0 0 1 1 1 1 1 1 1 1 1 1 1 1 1 1 1 1 1 1 1 1 1 1 1 1 1 1 1 1 1 0 0 0
0 0 0 0 0 0 0 0 0 0 0 1 1 1 1 1 1 1 1 1 1 1 1 1 1 1 1 1 1 1 1 1 1 1 1 1 1 1 1 1 1 0 0 0
0 0 0 0 0 0 1 1 0 0 0 0 0 0 0 0 1 1 1 1 1 1 1 1 1 1 1 1 1 1 1 1 1 1 1 1 1 1 1 1 1 0 0 0
0 0 0 0 0 1 1 1 0 0 0 0 0 0 0 0 0 0 1 1 1 1 1 1 1 1 1 1 1 1 1 1 1 1 1 1 1 1 1 1 1 0 0 0
0 0 0 1 1 0 0 0 0 0 0 0 0 0 0 0 0 0 1 1 1 1 1 0 0 0 0 0 0 0 1 1 1 1 1 1 1 1 1 1 1 0 0 0
0 0 0 0 0 0 0 0 0 0 0 0 0 0 0 0 0 0 0 0 0 0 0 0 0 0 0 0 0 0 0 0 0 0 1 1 1 1 0 0 0 0 0 0
0 0 0 0 0 0 0 0 0 0 0 0 0 0 0 0 0 0 0 0 0 0 0 0 0 0 0 0 0 0 0 0 0 0 0 0 0 0 0 0 0 0 0 0
0 0 0 0 0 0 0 0 0 0 0 0 0 0 0 0 0 0 0 0 0 0 0 0 0 0 0 0 0 0 0 0 0 0 0 0 0 0 0 0 0 0 0 0
0 0 0 0 0 0 0 0 0 0 0 0 0 0 0 0 0 0 0 0 0 0 0 0 0 0 0 0 0 0 0 0 0 0 0 0 0 0 0 0 0 0 0 0
0 0 0 0 0 0 0 0 0 0 0 0 0 0 0 0 0 0 0 0 0 0 0 0 0 0 0 0 0 0 0 0 0 0 0 0 0 0 0 0 0 0 0 0
0 0 0 0 0 0 0 0 0 0 0 0 0 0 0 0 0 0 0 0 0 0 0 0 0 0 0 0 0 0 0 0 0 0 0 0 0 0 0 0 0 0 0 0
0 0 0 0 0 0 0 0 0 0 0 0 0 0 0 0 0 0 0 0 0 0 0 0 0 0 0 0 0 0 0 0 0 0 0 0 0 0 0 0 0 0 0 0
0 0 0 0 0 0 0 0 0 0 0 0 0 0 0 0 0 0 0 0 0 0 0 0 0 0 0 0 0 0 0 0 0 0 0 0 0 0 0 0 0 0 0 0
0 0 0 0 0 0 0 0 0 0 0 0 0 0 0 0 0 0 0 0 0 0 0 0 0 0 0 0 0 0 0 0 0 0 0 0 0 0 0 0 0 0 0 0
0 0 0 0 0 0 0 0 0 0 0 0 0 0 0 0 0 0 0 0 0 0 0 0 0 0 0 0 0 0 0 0 0 0 0 0 0 0 0 0 0 0 0 0
0 0 0 0 0 0 0 0 0 0 0 0 0 0 0 0 0 0 0 0 0 0 0 0 0 0 0 0 0 0 0 0 0 0 0 0 0 0 0 0 0 0 0 0
0 0 0 0 0 0 0 0 0 0 0 0 0 0 0 0 0 0 0 0 0 0 0 0 0 0 0 0 0 0 0 0 0 0 0 0 0 0 0 0 0 0 0 0
0 0 0 0 0 0 0 0 0 0 0 0 0 0 0 0 0 0 0 0 0 0 0 0 0 0 0 0 0 0 0 0 0 0 0 0 0 0 0 0 0 0 0 0
0 0 0 0 0 0 0 0 0 0 0 0 0 0 0 0 0 0 0 0 0 0 0 0 0 0 0 0 0 0 0 0 0 0 0 0 0 0 0 0 0 0 0 0
0 0 0 0 0 0 0 0 0 0 0 0 0 0 0 0 0 0 0 0 0 0 0 0 0 0 0 0 0 0 0 0 0 0 0 0 0 0 0 0 0 0 0 0
0 0 0 0 0 0 0 0 0 0 0 0 0 0 0 0 0 0 0 0 0 0 0 0 0 0 0 0 0 0 0 0 0 0 0 0 0 0 0 0 0 0 0 0
0 0 0 0 0 0 0 0 0 0 0 0 0 0 0 0 0 0 0 0 0 0 0 0 0 0 0 0 0 0 0 0 0 0 0 0 0 0 0 0 0 0 0 0
Wind_Speed
13 16 15 13 13 11 11 10 9 7 6 3 1 1 2 2 2 3 3 4 4 4 4 5 5 5 6 6 6 6 6 6 6 5 5 4 4 4 3 3 4 3 3 3
14 15 15 14 13 11 9 9 9 7 4 2 1 1 2 2 2 2 2 3 3 3 5 5 5 5 6 6 6 6 6 5 5 5 5 5 4 4 4 3 3 3 3 3
13 14 14 12 9 7 5 5 5 5 3 2 2 2 1 2 2 1 1 3 3 2 3 4 4 4 5 5 6 6 6 5 5 5 5 5 5 4 4 3 3 3 3 3
10 11 12 5 5 5 5 2 4 4 2 1 2 3 3 2 1 0 1 2 2 2 2 4 4 4 4 5 6 6 5 5 5 5 4 4 4 4 3 3 3 3 4 4
9 11 10 4 6 7 6 3 5 4 4 4 2 1 2 3 2 1 1 2 3 3 3 3 4 4 5 4 4 5 5 5 5 5 4 3 3 3 2 2 3 4 4 4
9 11 9 4 7 7 7 2 6 7 6 5 4 2 1 3 3 2 2 3 3 3 4 4 3 4 5 4 4 4 4 4 4 4 4 3 3 3 2 2 3 4 4 4
11 11 5 5 8 7 4 3 6 6 5 6 5 3 2 2 2 2 2 3 3 3 3 3 3 4 4 4 4 4 4 4 4 4 4 3 3 2 2 3 3 3 4 4
8 8 4 6 6 4 4 5 5 6 5 4 3 3 2 2 2 1 1 2 3 2 3 3 3 4 3 3 3 3 3 4 4 3 3 3 3 3 3 3 4 4 3 3
2 3 2 5 5 5 5 5 5 5 4 3 2 2 1 1 1 1 1 2 2 2 3 3 3 3 3 2 2 2 3 3 3 3 3 3 4 4 3 3 3 3 3 3
3 3 3 4 4 5 5 5 5 4 3 3 3 2 1 0 1 1 1 2 2 3 3 3 3 3 3 3 3 3 3 2 2 3 4 4 4 4 4 4 4 3 3 3
4 5 6 5 6 6 6 5 5 3 2 2 2 2 1 0 1 1 1 1 1 2 3 3 3 3 3 3 3 3 3 3 3 3 4 4 4 3 5 3 3 3 2 2
4 5 6 7 7 7 6 5 5 4 2 1 2 2 1 0 1 1 2 2 1 1 2 3 3 3 2 2 3 3 3 3 3 3 3 4 4 3 2 2 4 4 3 1
6 8 8 8 7 7 6 5 4 3 3 2 1 1 1 1 1 1 1 2 2 2 2 2 3 3 3 3 3 3 3 3 3 3 3 3 3 3 2 2 2 3 3 3
7 7 7 7 7 6 5 4 4 3 2 1 1 1 1 1 1 1 1 2 2 2 2 2 3 3 2 2 3 3 4 4 4 3 3 3 3 3 3 3 4 4 5 7
7 6 6 7 6 5 4 3 3 2 1 1 1 2 1 1 0 1 1 1 2 2 3 3 3 2 2 2 2 4 4 3 3 3 3 4 4 4 4 4 3 3 3 4
6 6 6 6 6 6 5 4 3 2 1 1 1 1 1 1 1 1 1 1 2 2 2 2 2 1 1 1 2 3 3 4 4 4 4 4 4 4 4 3 3 3 3 3
6 6 6 6 5 5 5 4 4 3 3 2 1 1 0 0 0 0 1 1 1 1 1 2 1 2 2 3 3 3 3 4 6 6 5 4 4 4 4 4 4 4 3 3
5 5 5 6 5 4 4 4 4 4 3 2 2 1 1 1 1 1 2 2 1 1 2 2 2 3 4 4 3 4 4 4 4 4 3 3 3 4 4 4 4 4 2 3
5 5 5 5 6 5 4 3 3 3 3 2 2 2 2 2 2 2 2 2 3 3 3 3 3 4 4 3 3 4 4 4 4 4 4 4 4 4 3 3 3 3 3 2
5 5 4 5 5 5 4 4 4 3 3 3 2 2 2 2 2 2 2 3 2 2 2 2 4 4 3 2 4 5 5 4 4 4 4 4 4 3 3 3 4 3 2 2
5 4 4 4 4 5 4 4 4 4 4 4 4 3 3 3 2 2 2 2 1 1 2 3 4 3 3 2 4 6 5 4 4 3 3 3 3 3 3 2 2 2 2 2
5 5 5 4 4 4 4 4 4 4 3 3 4 4 4 3 3 3 2 2 2 0 2 3 2 1 1 2 4 5 4 3 3 3 2 2 2 2 2 2 2 2 2 2
5 5 5 4 4 3 4 3 3 3 4 3 3 4 4 4 3 3 3 2 1 1 2 2 1 1 2 3 4 5 4 3 3 3 2 2 2 2 2 3 2 2 2 1
6 5 5 5 4 3 3 3 4 3 3 4 3 2 3 3 3 3 3 1 0 1 3 1 3 3 4 4 4 4 3 2 2 2 2 2 2 2 2 3 3 2 2 2
5 4 4 4 3 2 2 3 3 3 3 3 3 2 2 3 3 3 3 3 1 1 3 1 3 4 4 5 4 3 3 2 2 2 2 2 2 2 2 3 3 2 2 2
4 3 3 4 3 3 2 2 2 2 2 2 2 2 3 3 3 3 2 2 2 2 3 2 2 3 4 5 4 3 2 2 2 2 2 2 3 3 2 3 3 1 1 2
5 4 3 3 3 3 2 2 2 2 2 3 3 3 3 3 3 3 3 3 2 3 3 3 3 3 4 4 4 3 3 3 2 2 2 2 2 2 2 2 2 1 1 1
Wind_Direction
271 277 280 277 276 271 268 270 271 268 272 276 229 224 160 124 139 141 147 149 155 159 150 152 155 161 166 166 163 162 163 169 168 169 174 179 181 186 187 189 202 194 203 218
278 276 279 277 274 271 269 272 270 268 275 348 344 221 169 152 153 154 160 148 145 160 156 160 164 172 165 163 160 158 165 170 167 169 174 177 184 189 192 198 208 204 211 218
281 285 285 274 284 288 286 288 286 286 305 345 300 329 135 128 137 170 177 154 143 157 154 155 159 163 160 158 155 159 166 171 165 173 181 179 189 187 193 198 209 219 222 217
276 280 270 275 326 314 300 321 327 325 335 342 13 16 39 66 91 156 172 154 146 151 151 158 153 148 148 154 160 162 170 172 166 172 177 178 184 184 189 190 207 226 233 226
267 267 263 286 323 320 301 324 4 356 357 0 22 16 66 57 51 58 145 143 146 143 143 150 153 151 145 150 165 169 174 175 171 170 169 178 181 179 183 191 215 228 229 223
262 268 271 320 336 316 279 249 9 7 354 336 333 314 35 46 46 71 71 87 105 122 127 127 139 147 149 157 166 180 178 178 175 165 172 185 171 174 183 203 222 230 226 223
256 262 268 339 336 325 296 341 354 356 354 345 348 1 26 53 58 64 87 110 115 122 130 136 142 146 161 170 175 186 181 180 168 163 177 180 162 181 200 217 227 236 234 223
255 260 264 346 342 4 2 3 355 357 1 3 8 22 36 53 85 85 103 123 136 137 130 142 150 154 161 173 178 176 172 173 166 169 198 183 168 197 212 216 224 233 236 231
282 276 358 5 9 16 15 359 354 358 356 350 338 345 26 66 104 127 136 140 137 144 134 140 151 155 166 170 175 160 159 172 173 181 197 185 183 203 213 216 221 221 220 225
274 289 331 350 344 354 353 343 334 348 347 343 320 312 318 168 149 151 140 128 141 156 154 153 165 166 163 168 170 165 164 174 190 199 205 197 196 202 211 216 220 225 220 224
296 312 313 322 333 335 336 331 336 336 333 338 303 289 295 299 147 152 141 144 151 162 166 172 171 171 171 175 177 178 173 183 208 225 218 206 208 211 219 218 216 222 233 240
297 322 311 313 320 321 318 317 318 317 313 301 277 291 288 170 133 149 155 162 164 167 181 182 176 175 174 185 185 186 191 200 216 225 216 215 212 215 199 194 180 177 168 173
302 305 303 303 309 314 314 314 320 314 311 311 308 333 39 86 110 144 172 175 172 194 204 193 186 179 184 190 193 202 211 214 223 232 229 227 223 217 203 196 206 211 202 193
316 319 317 317 317 321 319 328 336 306 300 328 20 71 72 81 113 157 201 197 189 190 202 198 196 191 196 204 197 201 222 229 230 231 231 239 238 233 230 216 206 220 220 213
327 331 325 325 325 330 333 335 318 302 329 13 84 87 99 98 116 208 217 214 183 192 205 205 205 195 191 207 213 211 224 232 230 235 235 238 237 239 242 240 231 223 198 189
324 330 331 328 324 331 333 330 325 327 342 10 70 100 98 163 191 205 195 194 182 204 227 227 207 191 198 219 237 230 225 230 231 240 241 236 238 238 238 232 237 243 235 184
316 322 326 325 324 329 332 340 339 341 355 341 342 12 274 235 198 186 221 220 209 212 235 251 240 240 229 222 230 244 241 227 221 234 241 241 244 242 238 235 234 236 237 192
320 327 330 330 328 327 332 338 336 334 337 336 330 304 258 269 258 239 238 247 220 209 236 242 226 236 240 231 226 243 246 239 233 240 243 243 252 259 255 246 242 244 239 195
328 326 328 329 330 331 331 328 323 319 323 330 331 329 320 288 271 259 251 238 224 220 228 237 238 243 238 224 237 250 252 244 237 238 245 243 246 249 251 258 257 247 241 213
322 319 327 330 336 339 336 327 319 318 331 334 325 322 308 279 262 252 250 244 235 244 246 237 230 237 236 219 243 253 249 246 242 237 234 241 248 255 259 261 257 252 257 246
329 328 340 348 348 347 342 344 346 347 348 349 343 333 329 323 316 304 279 265 293 299 267 239 232 236 238 255 255 260 252 249 250 248 237 238 252 256 258 267 272 265 259 247
336 339 341 343 343 344 346 351 349 347 348 345 339 341 338 335 323 310 296 289 285 263 249 252 244 230 270 265 259 265 262 252 256 251 249 252 252 261 265 268 272 271 269 266
338 338 335 335 337 341 344 344 341 337 336 334 333 335 334 328 311 302 299 307 308 272 256 261 269 167 255 265 268 266 268 271 279 277 269 256 251 254 263 259 253 255 257 273
329 328 322 323 325 329 338 333 327 324 322 317 314 324 322 308 298 294 300 308 340 271 282 251 194 214 245 261 267 266 267 268 277 283 280 279 271 259 271 278 273 264 251 253
311 312 316 314 308 310 309 309 312 315 307 313 313 317 300 293 300 308 314 321 330 263 308 303 211 219 244 262 266 265 264 266 272 282 292 300 295 286 275 272 272 284 297 294
312 305 301 288 288 289 288 287 283 287 296 303 304 304 303 302 308 315 317 312 324 313 303 303 263 240 261 275 281 276 274 271 265 263 270 277 279 280 283 282 283 289 308 317
309 310 299 292 293 298 304 300 295 297 303 307 309 312 307 307 312 315 315 316 300 292 294 288 273 261 269 275 277 270 263 261 263 264 264 273 286 287 281 285 302 313 317 337